Time,TemperatureF,DewpointF,PressureIn,WindDirection,WindDirectionDegrees,WindSpeedMPH,WindSpeedGustMPH,Humidity,HourlyPrecipIn,Conditions,Clouds,dailyrainin,SoftwareType,DateUTC
2013-10-15 00:00:00,54.9,14.6,30.20,East,80,0.0,0.0,20,0.00,,,0.03,VWS V15.00,2013-10-15 04:00:00,
2013-10-15 00:01:00,57.3,26.2,30.20,East,82,0.0,0.0,30,0.00,,,0.00,VWS V14.01,2013-10-15 04:01:00,
2013-10-15 00:06:00,57.4,28.5,30.20,East,82,0.0,0.0,33,0.00,,,0.00,VWS V14.01,2013-10-15 04:06:00,
2013-10-15 00:11:00,57.4,29.3,30.20,East,82,0.0,0.0,34,0.00,,,0.00,VWS V14.01,2013-10-15 04:11:00,
2013-10-15 00:16:00,57.5,30.8,30.20,East,82,0.0,1.0,36,0.00,,,0.00,VWS V14.01,2013-10-15 04:16:00,
2013-10-15 00:21:00,57.5,32.1,30.20,East,82,0.0,1.0,38,0.00,,,0.00,VWS V14.01,2013-10-15 04:21:00,
2013-10-15 00:26:00,57.6,34.1,30.20,East,82,0.0,1.0,41,0.00,,,0.00,VWS V14.01,2013-10-15 04:26:00,
2013-10-15 00:30:00,56.2,0.4,30.21,East,82,1.0,3.0,10,0.00,,,0.03,VWS V15.00,2013-10-15 04:30:00,
2013-10-15 00:31:00,57.6,35.3,30.20,East,82,0.0,1.0,43,0.00,,,0.00,VWS V14.01,2013-10-15 04:31:00,
2013-10-15 00:36:00,57.6,34.7,30.20,East,82,0.0,1.0,42,0.00,,,0.00,VWS V14.01,2013-10-15 04:36:00,
2013-10-15 00:41:00,57.6,35.3,30.20,East,82,0.0,1.0,43,0.00,,,0.00,VWS V14.01,2013-10-15 04:41:00,
2013-10-15 00:46:00,57.7,35.4,30.20,East,82,0.0,1.0,43,0.00,,,0.00,VWS V14.01,2013-10-15 04:46:00,
2013-10-15 00:51:00,57.6,35.9,30.20,East,82,0.0,1.0,44,0.00,,,0.00,VWS V14.01,2013-10-15 04:51:00,
2013-10-15 00:56:00,57.7,36.0,30.20,East,82,0.0,1.0,44,0.00,,,0.00,VWS V14.01,2013-10-15 04:56:00,
2013-10-15 01:00:00,57.3,25.3,30.20,East,82,0.0,5.0,29,0.00,,,0.00,VWS V15.00,2013-10-15 05:00:00,
2013-10-15 01:01:00,57.6,35.3,30.19,East,82,0.0,1.0,43,0.00,,,0.00,VWS V14.01,2013-10-15 05:01:00,
2013-10-15 01:06:00,57.6,35.3,30.19,East,82,0.0,1.0,43,0.00,,,0.00,VWS V14.01,2013-10-15 05:06:00,
2013-10-15 01:11:00,57.6,34.7,30.19,East,82,0.0,1.0,42,0.00,,,0.00,VWS V14.01,2013-10-15 05:11:00,
2013-10-15 01:16:00,57.6,34.1,30.19,ENE,77,0.0,2.0,41,0.00,,,0.00,VWS V14.01,2013-10-15 05:16:00,
2013-10-15 01:21:00,57.6,32.8,30.19,ENE,78,0.0,4.0,39,0.00,,,0.00,VWS V14.01,2013-10-15 05:21:00,
2013-10-15 01:26:00,57.5,34.6,30.19,East,84,0.0,4.0,42,0.00,,,0.00,VWS V14.01,2013-10-15 05:26:00,
2013-10-15 01:30:00,57.6,34.7,30.20,East,82,0.0,2.0,42,0.00,,,0.00,VWS V15.00,2013-10-15 05:30:00,
2013-10-15 01:31:00,57.5,34.0,30.19,SE,129,0.0,3.0,41,0.00,,,0.00,VWS V14.01,2013-10-15 05:31:00,
2013-10-15 01:36:00,57.5,32.8,30.19,NE,53,0.0,4.0,39,0.00,,,0.00,VWS V14.01,2013-10-15 05:36:00,
2013-10-15 01:41:00,57.4,32.7,30.19,NE,54,0.0,4.0,39,0.00,,,0.00,VWS V14.01,2013-10-15 05:41:00,
2013-10-15 01:46:00,57.3,31.9,30.19,ENE,71,1.0,4.0,38,0.00,,,0.00,VWS V14.01,2013-10-15 05:46:00,
2013-10-15 01:51:00,57.3,31.9,30.19,ENE,71,0.0,4.0,38,0.00,,,0.00,VWS V14.01,2013-10-15 05:51:00,
2013-10-15 01:56:00,57.2,32.5,30.19,ENE,71,0.0,4.0,39,0.00,,,0.00,VWS V14.01,2013-10-15 05:56:00,
2013-10-15 02:00:00,57.6,35.9,30.19,East,82,0.0,1.0,44,0.00,,,0.00,VWS V15.00,2013-10-15 06:00:00,
2013-10-15 02:01:00,57.1,32.4,30.18,ENE,71,0.0,1.0,39,0.00,,,0.00,VWS V14.01,2013-10-15 06:01:00,
2013-10-15 02:06:00,57.1,33.0,30.19,ENE,70,0.0,2.0,40,0.00,,,0.00,VWS V14.01,2013-10-15 06:06:00,
2013-10-15 02:11:00,57.0,32.9,30.19,ENE,70,1.0,2.0,40,0.00,,,0.00,VWS V14.01,2013-10-15 06:11:00,
2013-10-15 02:16:00,56.9,33.5,30.19,ENE,72,0.0,2.0,41,0.00,,,0.00,VWS V14.01,2013-10-15 06:16:00,
2013-10-15 02:21:00,56.9,32.8,30.19,ENE,66,0.0,2.0,40,0.00,,,0.00,VWS V14.01,2013-10-15 06:21:00,
2013-10-15 02:26:00,56.8,32.1,30.19,ENE,66,0.0,2.0,39,0.00,,,0.00,VWS V14.01,2013-10-15 06:26:00,
2013-10-15 02:30:00,57.5,33.4,30.19,East,84,0.0,4.0,40,0.00,,,0.00,VWS V15.00,2013-10-15 06:30:00,
2013-10-15 02:31:00,56.8,31.5,30.18,ENE,66,0.0,0.0,38,0.00,,,0.00,VWS V14.01,2013-10-15 06:31:00,
2013-10-15 02:36:00,56.8,31.5,30.18,ENE,66,0.0,2.0,38,0.00,,,0.00,VWS V14.01,2013-10-15 06:36:00,
2013-10-15 02:41:00,56.7,30.1,30.18,ENE,66,0.0,2.0,36,0.00,,,0.00,VWS V14.01,2013-10-15 06:41:00,
2013-10-15 02:46:00,56.7,30.1,30.18,ENE,66,0.0,2.0,36,0.00,,,0.00,VWS V14.01,2013-10-15 06:46:00,
2013-10-15 02:51:00,56.7,29.4,30.18,ENE,66,0.0,2.0,35,0.00,,,0.00,VWS V14.01,2013-10-15 06:51:00,
2013-10-15 02:56:00,56.6,28.6,30.18,ENE,65,0.0,2.0,34,0.00,,,0.00,VWS V14.01,2013-10-15 06:56:00,
2013-10-15 03:00:00,57.1,32.4,30.19,ENE,71,0.0,4.0,39,0.00,,,0.00,VWS V15.00,2013-10-15 07:00:00,
2013-10-15 03:01:00,56.6,26.3,30.18,ENE,65,0.0,0.0,31,0.00,,,0.00,VWS V14.01,2013-10-15 07:01:00,
2013-10-15 03:06:00,56.5,25.5,30.18,ENE,65,0.0,0.0,30,0.00,,,0.00,VWS V14.01,2013-10-15 07:06:00,
2013-10-15 03:11:00,56.5,23.8,30.18,ENE,65,0.0,0.0,28,0.00,,,0.00,VWS V14.01,2013-10-15 07:11:00,
2013-10-15 03:16:00,56.4,22.0,30.18,ENE,65,0.0,0.0,26,0.00,,,0.00,VWS V14.01,2013-10-15 07:16:00,
2013-10-15 03:21:00,56.4,21.0,30.17,ENE,65,0.0,0.0,25,0.00,,,0.00,VWS V14.01,2013-10-15 07:21:00,
2013-10-15 03:26:00,56.4,20.1,30.17,ENE,65,0.0,0.0,24,0.00,,,0.00,VWS V14.01,2013-10-15 07:26:00,
2013-10-15 03:30:00,56.8,32.1,30.18,ENE,66,0.0,2.0,39,0.00,,,0.00,VWS V15.00,2013-10-15 07:30:00,
2013-10-15 03:31:00,56.3,20.0,30.17,ENE,65,0.0,0.0,24,0.00,,,0.00,VWS V14.01,2013-10-15 07:31:00,
2013-10-15 03:36:00,56.3,16.9,30.17,ENE,65,0.0,0.0,21,0.00,,,0.00,VWS V14.01,2013-10-15 07:36:00,
2013-10-15 03:41:00,56.3,16.9,30.17,ENE,65,0.0,0.0,21,0.00,,,0.00,VWS V14.01,2013-10-15 07:41:00,
2013-10-15 03:46:00,56.2,16.8,30.17,ENE,65,0.0,0.0,21,0.00,,,0.00,VWS V14.01,2013-10-15 07:46:00,
2013-10-15 04:00:00,56.6,27.1,30.18,ENE,65,0.0,2.0,32,0.00,,,0.00,VWS V15.00,2013-10-15 08:00:00,
2013-10-15 04:30:00,56.3,21.0,30.17,ENE,65,0.0,0.0,25,0.00,,,0.00,VWS V15.00,2013-10-15 08:30:00,
2013-10-15 04:39:00,55.9,13.0,30.17,ENE,65,0.0,0.0,18,0.00,,,0.00,VWS V14.01,2013-10-15 08:39:00,
2013-10-15 04:44:00,55.9,13.0,30.16,ENE,65,0.0,0.0,18,0.00,,,0.00,VWS V14.01,2013-10-15 08:44:00,
2013-10-15 04:49:00,55.8,14.2,30.16,ENE,65,0.0,0.0,19,0.00,,,0.00,VWS V14.01,2013-10-15 08:49:00,
2013-10-15 04:50:00,55.7,14.1,30.16,ENE,65,0.0,0.0,19,0.00,,,0.00,VWS V14.01,2013-10-15 08:50:00,
2013-10-15 04:55:00,55.7,14.1,30.16,ENE,65,0.0,0.0,19,0.00,,,0.00,VWS V14.01,2013-10-15 08:55:00,
2013-10-15 05:00:00,55.7,12.9,30.16,ENE,65,0.0,0.0,18,0.00,,,0.00,VWS V14.01,2013-10-15 09:00:00,
2013-10-15 05:05:00,55.6,11.5,30.16,ENE,65,0.0,0.0,17,0.00,,,0.00,VWS V14.01,2013-10-15 09:05:00,
2013-10-15 05:10:00,55.6,11.5,30.16,ENE,65,0.0,0.0,17,0.00,,,0.00,VWS V14.01,2013-10-15 09:10:00,
2013-10-15 05:15:00,55.5,12.7,30.16,ENE,65,0.0,1.0,18,0.00,,,0.00,VWS V14.01,2013-10-15 09:15:00,
2013-10-15 05:20:00,55.5,12.7,30.16,ENE,65,0.0,1.0,18,0.00,,,0.00,VWS V14.01,2013-10-15 09:20:00,
2013-10-15 05:25:00,55.3,12.5,30.16,ENE,65,0.0,1.0,18,0.00,,,0.00,VWS V14.01,2013-10-15 09:25:00,
2013-10-15 05:30:00,55.3,13.8,30.16,ENE,65,0.0,0.0,19,0.00,,,0.00,VWS V14.01,2013-10-15 09:30:00,
2013-10-15 05:35:00,55.2,13.7,30.17,ENE,65,0.0,0.0,19,0.00,,,0.00,VWS V14.01,2013-10-15 09:35:00,
2013-10-15 05:40:00,55.2,13.7,30.17,ENE,65,0.0,0.0,19,0.00,,,0.00,VWS V14.01,2013-10-15 09:40:00,
2013-10-15 05:45:00,55.2,13.7,30.17,ENE,65,0.0,0.0,19,0.00,,,0.00,VWS V14.01,2013-10-15 09:45:00,
2013-10-15 05:49:00,55.1,13.6,30.17,ENE,65,0.0,0.0,19,0.00,,,0.00,VWS V14.01,2013-10-15 09:49:00,
2013-10-15 05:54:00,55.1,13.6,30.17,ENE,65,0.0,0.0,19,0.00,,,0.00,VWS V14.01,2013-10-15 09:54:00,
2013-10-15 05:59:00,55.1,12.4,30.17,ENE,65,0.0,0.0,18,0.00,,,0.00,VWS V14.01,2013-10-15 09:59:00,
2013-10-15 06:00:00,55.7,12.9,30.16,ENE,65,0.0,0.0,18,0.00,,,0.00,VWS V15.00,2013-10-15 10:00:00,
2013-10-15 06:04:00,55.1,12.4,30.17,ENE,65,0.0,0.0,18,0.00,,,0.00,VWS V14.01,2013-10-15 10:04:00,
2013-10-15 06:09:00,55.1,13.6,30.16,ENE,65,0.0,0.0,19,0.00,,,0.00,VWS V14.01,2013-10-15 10:09:00,
2013-10-15 06:14:00,55.1,13.6,30.16,ENE,65,0.0,0.0,19,0.00,,,0.00,VWS V14.01,2013-10-15 10:14:00,
2013-10-15 06:19:00,55.0,13.5,30.16,ENE,65,0.0,0.0,19,0.00,,,0.00,VWS V14.01,2013-10-15 10:19:00,
2013-10-15 06:24:00,55.0,12.3,30.16,ENE,65,0.0,0.0,18,0.00,,,0.00,VWS V14.01,2013-10-15 10:24:00,
2013-10-15 06:29:00,55.0,12.3,30.16,ENE,65,0.0,0.0,18,0.00,,,0.00,VWS V14.01,2013-10-15 10:29:00,
2013-10-15 06:30:00,55.3,13.8,30.16,ENE,65,0.0,1.0,19,0.00,,,0.00,VWS V15.00,2013-10-15 10:30:00,
2013-10-15 06:34:00,55.1,12.4,30.16,ENE,65,0.0,0.0,18,0.00,,,0.00,VWS V14.01,2013-10-15 10:34:00,
2013-10-15 06:39:00,55.1,12.4,30.16,ENE,65,0.0,0.0,18,0.00,,,0.00,VWS V14.01,2013-10-15 10:39:00,
2013-10-15 06:44:00,55.1,11.1,30.16,ENE,65,0.0,0.0,17,0.00,,,0.00,VWS V14.01,2013-10-15 10:44:00,
2013-10-15 06:49:00,55.1,11.1,30.16,ENE,65,0.0,0.0,17,0.00,,,0.00,VWS V14.01,2013-10-15 10:49:00,
2013-10-15 06:54:00,55.1,11.1,30.16,ENE,65,0.0,0.0,17,0.00,,,0.00,VWS V14.01,2013-10-15 10:54:00,
2013-10-15 06:59:00,55.0,11.0,30.16,ENE,65,0.0,0.0,17,0.00,,,0.00,VWS V14.01,2013-10-15 10:59:00,
2013-10-15 07:00:00,55.1,12.4,30.17,ENE,65,0.0,0.0,18,0.00,,,0.00,VWS V15.00,2013-10-15 11:00:00,
2013-10-15 07:04:00,55.0,12.3,30.16,ENE,65,0.0,0.0,18,0.00,,,0.00,VWS V14.01,2013-10-15 11:04:00,
2013-10-15 07:09:00,54.9,12.2,30.16,ENE,65,0.0,0.0,18,0.00,,,0.00,VWS V14.01,2013-10-15 11:09:00,
2013-10-15 07:14:00,54.8,12.1,30.16,ENE,65,0.0,0.0,18,0.00,,,0.00,VWS V14.01,2013-10-15 11:14:00,
2013-10-15 07:19:00,54.8,12.1,30.16,ENE,65,0.0,0.0,18,0.00,,,0.00,VWS V14.01,2013-10-15 11:19:00,
2013-10-15 07:24:00,54.7,13.3,30.16,ENE,65,0.0,0.0,19,0.00,,,0.00,VWS V14.01,2013-10-15 11:24:00,
2013-10-15 07:29:00,54.7,13.3,30.16,ENE,65,0.0,0.0,19,0.00,,,0.00,VWS V14.01,2013-10-15 11:29:00,
2013-10-15 07:30:00,55.0,12.3,30.16,ENE,65,0.0,0.0,18,0.00,,,0.00,VWS V15.00,2013-10-15 11:30:00,
2013-10-15 07:34:00,54.7,12.1,30.16,ENE,65,0.0,0.0,18,0.00,,,0.00,VWS V14.01,2013-10-15 11:34:00,
2013-10-15 07:39:00,54.6,12.0,30.16,ENE,65,0.0,0.0,18,0.00,,,0.00,VWS V14.01,2013-10-15 11:39:00,
2013-10-15 07:44:00,54.6,13.2,30.16,ENE,65,0.0,0.0,19,0.00,,,0.00,VWS V14.01,2013-10-15 11:44:00,
2013-10-15 07:49:00,54.5,13.1,30.16,ENE,65,0.0,0.0,19,0.00,,,0.00,VWS V14.01,2013-10-15 11:49:00,
2013-10-15 07:54:00,54.6,12.0,30.16,ENE,65,0.0,0.0,18,0.00,,,0.00,VWS V14.01,2013-10-15 11:54:00,
2013-10-15 07:59:00,54.5,11.9,30.17,ENE,65,0.0,0.0,18,0.00,,,0.00,VWS V14.01,2013-10-15 11:59:00,
2013-10-15 08:00:00,55.0,11.0,30.16,ENE,65,0.0,0.0,17,0.00,,,0.00,VWS V15.00,2013-10-15 12:00:00,
2013-10-15 08:04:00,54.5,11.9,30.17,ENE,65,0.0,0.0,18,0.01,,,0.01,VWS V14.01,2013-10-15 12:04:00,
2013-10-15 08:09:00,54.5,11.9,30.17,ENE,65,0.0,0.0,18,0.01,,,0.01,VWS V14.01,2013-10-15 12:09:00,
2013-10-15 08:14:00,54.5,11.9,30.17,ENE,65,0.0,0.0,18,0.01,,,0.01,VWS V14.01,2013-10-15 12:14:00,
2013-10-15 08:19:00,54.5,10.6,30.18,ENE,65,0.0,0.0,17,0.01,,,0.01,VWS V14.01,2013-10-15 12:19:00,
2013-10-15 08:24:00,54.5,10.6,30.18,ENE,65,0.0,0.0,17,0.01,,,0.01,VWS V14.01,2013-10-15 12:24:00,
2013-10-15 08:29:00,54.4,10.5,30.18,ENE,65,0.0,0.0,17,0.01,,,0.01,VWS V14.01,2013-10-15 12:29:00,
2013-10-15 08:30:00,54.7,13.3,30.16,ENE,65,0.0,0.0,19,0.00,,,0.00,VWS V15.00,2013-10-15 12:30:00,
2013-10-15 08:34:00,54.4,11.8,30.18,ENE,65,0.0,0.0,18,0.01,,,0.01,VWS V14.01,2013-10-15 12:34:00,
2013-10-15 08:39:00,54.4,10.5,30.18,ENE,65,0.0,0.0,17,0.01,,,0.01,VWS V14.01,2013-10-15 12:39:00,
2013-10-15 08:44:00,54.5,7.8,30.18,ENE,65,0.0,0.0,15,0.01,,,0.01,VWS V14.01,2013-10-15 12:44:00,
2013-10-15 08:49:00,54.6,7.9,30.18,ENE,65,0.0,0.0,15,0.01,,,0.01,VWS V14.01,2013-10-15 12:49:00,
2013-10-15 08:54:00,54.7,8.0,30.18,ENE,65,0.0,0.0,15,0.01,,,0.01,VWS V14.01,2013-10-15 12:54:00,
2013-10-15 08:59:00,54.6,9.3,30.17,ENE,65,0.0,0.0,16,0.01,,,0.01,VWS V14.01,2013-10-15 12:59:00,
2013-10-15 09:00:00,54.6,12.0,30.17,ENE,65,0.0,0.0,18,0.00,,,0.00,VWS V15.00,2013-10-15 13:00:00,
2013-10-15 09:04:00,54.6,10.7,30.18,ENE,65,0.0,0.0,17,0.01,,,0.01,VWS V14.01,2013-10-15 13:04:00,
2013-10-15 09:09:00,54.5,11.9,30.18,ENE,65,0.0,0.0,18,0.01,,,0.01,VWS V14.01,2013-10-15 13:09:00,
2013-10-15 09:14:00,54.5,11.9,30.18,ENE,65,0.0,0.0,18,0.01,,,0.01,VWS V14.01,2013-10-15 13:14:00,
2013-10-15 09:19:00,54.6,9.3,30.18,ENE,65,0.0,0.0,16,0.01,,,0.01,VWS V14.01,2013-10-15 13:19:00,
2013-10-15 09:24:00,54.7,9.4,30.18,ENE,65,0.0,0.0,16,0.01,,,0.01,VWS V14.01,2013-10-15 13:24:00,
2013-10-15 09:29:00,54.7,10.8,30.17,ENE,65,0.0,0.0,17,0.00,,,0.01,VWS V14.01,2013-10-15 13:29:00,
2013-10-15 09:30:00,54.4,10.5,30.18,ENE,65,0.0,0.0,17,0.01,,,0.01,VWS V15.00,2013-10-15 13:30:00,
2013-10-15 09:34:00,54.7,13.3,30.18,ENE,65,0.0,0.0,19,0.00,,,0.01,VWS V14.01,2013-10-15 13:34:00,
2013-10-15 09:39:00,54.7,13.3,30.18,ENE,65,0.0,0.0,19,0.00,,,0.01,VWS V14.01,2013-10-15 13:39:00,
2013-10-15 09:44:00,54.8,13.4,30.18,ENE,65,0.0,0.0,19,0.00,,,0.01,VWS V14.01,2013-10-15 13:44:00,
2013-10-15 09:49:00,54.8,17.7,30.18,ENE,65,0.0,0.0,23,0.00,,,0.01,VWS V14.01,2013-10-15 13:49:00,
2013-10-15 09:54:00,54.9,19.8,30.18,ENE,65,0.0,0.0,25,0.00,,,0.01,VWS V14.01,2013-10-15 13:54:00,
2013-10-15 09:59:00,54.8,27.0,30.18,ENE,65,0.0,0.0,34,0.00,,,0.01,VWS V14.01,2013-10-15 13:59:00,
2013-10-15 10:00:00,54.6,9.3,30.18,ENE,65,0.0,0.0,16,0.01,,,0.01,VWS V15.00,2013-10-15 14:00:00,
2013-10-15 10:04:00,54.7,27.6,30.17,ENE,65,0.0,1.0,35,0.00,,,0.01,VWS V14.01,2013-10-15 14:04:00,
2013-10-15 10:09:00,54.8,23.2,30.17,ENE,65,0.0,1.0,29,0.00,,,0.01,VWS V14.01,2013-10-15 14:09:00,
2013-10-15 10:14:00,55.0,25.7,30.17,ENE,65,0.0,1.0,32,0.00,,,0.01,VWS V14.01,2013-10-15 14:14:00,
2013-10-15 10:19:00,55.2,27.3,30.17,ENE,65,0.0,1.0,34,0.00,,,0.01,VWS V14.01,2013-10-15 14:19:00,
2013-10-15 10:24:00,55.2,31.3,30.17,ENE,65,0.0,1.0,40,0.00,,,0.01,VWS V14.01,2013-10-15 14:24:00,
2013-10-15 10:29:00,55.3,32.6,30.17,ENE,65,0.0,0.0,42,0.00,,,0.01,VWS V14.01,2013-10-15 14:29:00,
2013-10-15 10:30:00,54.7,9.4,30.17,ENE,65,0.0,1.0,16,0.01,,,0.01,VWS V15.00,2013-10-15 14:30:00,
2013-10-15 10:34:00,55.5,32.8,30.17,ENE,65,0.0,0.0,42,0.00,,,0.01,VWS V14.01,2013-10-15 14:34:00,
2013-10-15 10:39:00,55.5,35.1,30.17,ENE,65,0.0,0.0,46,0.00,,,0.01,VWS V14.01,2013-10-15 14:39:00,
2013-10-15 10:44:00,55.7,36.3,30.17,SSW,203,1.0,2.0,48,0.00,,,0.01,VWS V14.01,2013-10-15 14:44:00,
2013-10-15 10:49:00,55.6,37.8,30.17,SSW,197,0.0,3.0,51,0.00,,,0.01,VWS V14.01,2013-10-15 14:49:00,
2013-10-15 10:54:00,55.7,34.7,30.17,SSW,197,0.0,3.0,45,0.00,,,0.01,VWS V14.01,2013-10-15 14:54:00,
2013-10-15 10:59:00,55.7,37.9,30.17,SSW,197,0.0,0.0,51,0.00,,,0.01,VWS V14.01,2013-10-15 14:59:00,
2013-10-15 11:00:00,54.8,26.3,30.18,ENE,65,0.0,1.0,33,0.00,,,0.01,VWS V15.00,2013-10-15 15:00:00,
2013-10-15 11:04:00,55.8,36.4,30.17,SSW,197,0.0,0.0,48,0.00,,,0.01,VWS V14.01,2013-10-15 15:04:00,
2013-10-15 11:09:00,55.9,34.9,30.16,SSW,208,0.0,2.0,45,0.00,,,0.01,VWS V14.01,2013-10-15 15:09:00,
2013-10-15 11:14:00,56.0,36.6,30.16,SSW,208,0.0,2.0,48,0.00,,,0.01,VWS V14.01,2013-10-15 15:14:00,
2013-10-15 11:19:00,56.1,37.2,30.16,NNW,331,0.0,2.0,49,0.00,,,0.01,VWS V14.01,2013-10-15 15:19:00,
2013-10-15 11:24:00,56.1,41.5,30.16,South,185,4.0,5.0,58,0.00,,,0.01,VWS V14.01,2013-10-15 15:24:00,
2013-10-15 11:29:00,56.1,37.2,30.16,South,187,0.0,0.0,49,0.00,,,0.01,VWS V14.01,2013-10-15 15:29:00,
2013-10-15 11:30:00,55.3,33.2,30.17,ENE,65,0.0,1.0,43,0.00,,,0.01,VWS V15.00,2013-10-15 15:30:00,
2013-10-15 11:34:00,56.1,38.7,30.16,SSW,212,1.0,2.0,52,0.00,,,0.01,VWS V14.01,2013-10-15 15:34:00,
2013-10-15 11:39:00,56.1,38.2,30.17,South,181,0.0,3.0,51,0.00,,,0.01,VWS V14.01,2013-10-15 15:39:00,
2013-10-15 11:44:00,56.2,38.8,30.17,South,182,0.0,3.0,52,0.00,,,0.01,VWS V14.01,2013-10-15 15:44:00,
2013-10-15 11:49:00,56.2,40.3,30.17,SSW,198,0.0,3.0,55,0.00,,,0.01,VWS V14.01,2013-10-15 15:49:00,
2013-10-15 11:54:00,56.3,38.4,30.17,SSW,198,0.0,3.0,51,0.00,,,0.01,VWS V14.01,2013-10-15 15:54:00,
2013-10-15 11:59:00,56.4,40.0,30.17,SSW,198,0.0,0.0,54,0.00,,,0.01,VWS V14.01,2013-10-15 15:59:00,
2013-10-15 12:00:00,55.7,37.9,30.17,SSW,197,0.0,3.0,51,0.00,,,0.01,VWS V15.00,2013-10-15 16:00:00,
2013-10-15 12:04:00,56.8,38.9,30.17,ESE,115,0.0,1.0,51,0.00,,,0.01,VWS V14.01,2013-10-15 16:04:00,
2013-10-15 12:09:00,57.2,41.7,30.16,ESE,115,0.0,1.0,56,0.00,,,0.01,VWS V14.01,2013-10-15 16:09:00,
2013-10-15 12:14:00,57.5,44.2,30.16,ESE,105,0.0,1.0,61,0.00,,,0.01,VWS V14.01,2013-10-15 16:14:00,
2013-10-15 12:19:00,57.6,45.5,30.16,East,100,0.0,2.0,64,0.00,,,0.01,VWS V14.01,2013-10-15 16:19:00,
2013-10-15 12:24:00,57.8,45.3,30.16,East,100,0.0,2.0,63,0.00,,,0.01,VWS V14.01,2013-10-15 16:24:00,
2013-10-15 12:29:00,58.0,45.1,30.16,East,100,0.0,0.0,62,0.00,,,0.01,VWS V14.01,2013-10-15 16:29:00,
2013-10-15 12:30:00,56.1,38.2,30.16,South,187,0.0,5.0,51,0.00,,,0.01,VWS V15.00,2013-10-15 16:30:00,
2013-10-15 12:34:00,58.0,46.7,30.16,East,100,0.0,2.0,66,0.00,,,0.01,VWS V14.01,2013-10-15 16:34:00,
2013-10-15 12:39:00,58.2,45.3,30.16,East,100,0.0,2.0,62,0.00,,,0.01,VWS V14.01,2013-10-15 16:39:00,
2013-10-15 12:44:00,58.3,46.2,30.16,East,99,1.0,2.0,64,0.00,,,0.01,VWS V14.01,2013-10-15 16:44:00,
2013-10-15 12:49:00,58.3,47.0,30.16,East,96,0.0,2.0,66,0.00,,,0.01,VWS V14.01,2013-10-15 16:49:00,
2013-10-15 12:54:00,58.4,47.1,30.15,East,95,0.0,2.0,66,0.00,,,0.01,VWS V14.01,2013-10-15 16:54:00,
2013-10-15 12:59:00,58.5,48.0,30.15,East,86,0.0,0.0,68,0.00,,,0.01,VWS V14.01,2013-10-15 16:59:00,
2013-10-15 13:00:00,56.4,40.5,30.17,SSW,198,0.0,3.0,55,0.00,,,0.01,VWS V15.00,2013-10-15 17:00:00,
2013-10-15 13:04:00,58.6,48.5,30.15,East,86,0.0,0.0,69,0.00,,,0.01,VWS V14.01,2013-10-15 17:04:00,
2013-10-15 13:09:00,58.9,47.2,30.15,East,90,0.0,1.0,65,0.00,,,0.01,VWS V14.01,2013-10-15 17:09:00,
2013-10-15 13:14:00,59.0,49.6,30.14,ENE,74,0.0,2.0,71,0.00,,,0.01,VWS V14.01,2013-10-15 17:14:00,
2013-10-15 13:19:00,59.3,48.4,30.14,ENE,72,0.0,2.0,67,0.00,,,0.01,VWS V14.01,2013-10-15 17:19:00,
2013-10-15 13:24:00,59.6,49.8,30.13,ENE,72,0.0,2.0,70,0.00,,,0.01,VWS V14.01,2013-10-15 17:24:00,
2013-10-15 13:29:00,60.0,50.6,30.13,ENE,72,0.0,0.0,71,0.00,,,0.01,VWS V14.01,2013-10-15 17:29:00,
2013-10-15 13:30:00,58.0,45.1,30.16,East,100,0.0,2.0,62,0.00,,,0.01,VWS V15.00,2013-10-15 17:30:00,
2013-10-15 13:34:00,60.4,51.7,30.13,ENE,72,0.0,1.0,73,0.00,,,0.01,VWS V14.01,2013-10-15 17:34:00,
2013-10-15 13:39:00,60.8,52.5,30.12,ENE,74,0.0,1.0,74,0.00,,,0.01,VWS V14.01,2013-10-15 17:39:00,
2013-10-15 13:44:00,61.2,52.5,30.12,ENE,74,0.0,1.0,73,0.00,,,0.01,VWS V14.01,2013-10-15 17:44:00,
2013-10-15 13:49:00,61.7,54.4,30.11,SW,214,2.0,3.0,77,0.00,,,0.01,VWS V14.01,2013-10-15 17:49:00,
2013-10-15 13:54:00,61.7,54.1,30.11,NNE,26,3.0,4.0,76,0.00,,,0.01,VWS V14.01,2013-10-15 17:54:00,
2013-10-15 13:59:00,61.9,54.6,30.11,ENE,76,2.0,4.0,77,0.00,,,0.01,VWS V14.01,2013-10-15 17:59:00,
2013-10-15 14:00:00,58.5,48.0,30.15,East,86,0.0,2.0,68,0.00,,,0.01,VWS V15.00,2013-10-15 18:00:00,
2013-10-15 14:04:00,61.9,54.6,30.11,ENE,78,0.0,6.0,77,0.00,,,0.01,VWS V14.01,2013-10-15 18:04:00,
2013-10-15 14:08:00,61.9,53.9,30.10,ENE,71,0.0,6.0,75,0.00,,,0.01,VWS V14.01,2013-10-15 18:08:00,
2013-10-15 14:13:00,62.1,54.8,30.10,ENE,77,0.0,6.0,77,0.00,,,0.01,VWS V14.01,2013-10-15 18:13:00,
2013-10-15 14:18:00,62.2,54.9,30.11,ENE,77,0.0,6.0,77,0.00,,,0.01,VWS V14.01,2013-10-15 18:18:00,
2013-10-15 14:23:00,62.2,55.3,30.11,ENE,77,0.0,6.0,78,0.00,,,0.01,VWS V14.01,2013-10-15 18:23:00,
2013-10-15 14:28:00,61.9,55.0,30.11,East,79,0.0,6.0,78,0.00,,,0.01,VWS V14.01,2013-10-15 18:28:00,
2013-10-15 14:30:00,60.0,50.6,30.13,ENE,72,0.0,2.0,71,0.00,,,0.01,VWS V15.00,2013-10-15 18:30:00,
2013-10-15 14:33:00,61.6,54.3,30.11,East,83,0.0,2.0,77,0.00,,,0.01,VWS V14.01,2013-10-15 18:33:00,
2013-10-15 14:38:00,61.6,54.3,30.10,East,84,0.0,2.0,77,0.00,,,0.01,VWS V14.01,2013-10-15 18:38:00,
2013-10-15 14:43:00,61.8,54.9,30.10,ENE,78,0.0,2.0,78,0.00,,,0.01,VWS V14.01,2013-10-15 18:43:00,
2013-10-15 14:48:00,61.9,54.6,30.10,ENE,69,0.0,2.0,77,0.00,,,0.01,VWS V14.01,2013-10-15 18:48:00,
2013-10-15 14:53:00,61.9,54.3,30.09,ENE,69,0.0,2.0,76,0.00,,,0.01,VWS V14.01,2013-10-15 18:53:00,
2013-10-15 14:58:00,61.9,54.6,30.09,ENE,69,0.0,2.0,77,0.00,,,0.01,VWS V14.01,2013-10-15 18:58:00,
2013-10-15 15:00:00,61.9,54.6,30.11,ENE,74,2.0,4.0,77,0.00,,,0.01,VWS V15.00,2013-10-15 19:00:00,
2013-10-15 15:03:00,62.1,54.8,30.08,NNW,344,2.0,5.0,77,0.00,,,0.01,VWS V14.01,2013-10-15 19:03:00,
2013-10-15 15:08:00,62.0,54.7,30.08,East,86,0.0,5.0,77,0.00,,,0.01,VWS V14.01,2013-10-15 19:08:00,
2013-10-15 15:13:00,62.1,55.2,30.08,East,89,1.0,5.0,78,0.00,,,0.01,VWS V14.01,2013-10-15 19:13:00,
2013-10-15 15:18:00,62.1,54.8,30.08,East,92,0.0,5.0,77,0.00,,,0.01,VWS V14.01,2013-10-15 19:18:00,
2013-10-15 15:23:00,62.0,54.7,30.08,East,80,1.0,5.0,77,0.00,,,0.01,VWS V14.01,2013-10-15 19:23:00,
2013-10-15 15:28:00,61.8,54.5,30.08,East,90,2.0,5.0,77,0.00,,,0.01,VWS V14.01,2013-10-15 19:28:00,
2013-10-15 15:30:00,61.9,55.0,30.11,East,79,0.0,6.0,78,0.00,,,0.01,VWS V15.00,2013-10-15 19:30:00,
2013-10-15 15:33:00,61.4,54.1,30.08,ENE,74,2.0,3.0,77,0.00,,,0.01,VWS V14.01,2013-10-15 19:33:00,
2013-10-15 15:38:00,61.2,53.6,30.08,East,83,0.0,3.0,76,0.00,,,0.01,VWS V14.01,2013-10-15 19:38:00,
2013-10-15 15:43:00,61.1,53.1,30.08,East,83,0.0,3.0,75,0.00,,,0.01,VWS V14.01,2013-10-15 19:43:00,
2013-10-15 15:48:00,61.0,53.0,30.07,East,83,0.0,3.0,75,0.00,,,0.01,VWS V14.01,2013-10-15 19:48:00,
2013-10-15 15:53:00,60.9,52.9,30.08,East,83,0.0,3.0,75,0.00,,,0.01,VWS V14.01,2013-10-15 19:53:00,
2013-10-15 15:58:00,60.9,52.9,30.08,East,83,0.0,3.0,75,0.00,,,0.01,VWS V14.01,2013-10-15 19:58:00,
2013-10-15 16:00:00,61.9,54.6,30.09,ENE,69,0.0,2.0,77,0.00,,,0.01,VWS V15.00,2013-10-15 20:00:00,
2013-10-15 16:03:00,60.8,51.3,30.08,ENE,74,0.0,3.0,71,0.00,,,0.01,VWS V14.01,2013-10-15 20:03:00,
2013-10-15 16:08:00,60.8,52.1,30.08,NE,44,0.0,3.0,73,0.00,,,0.01,VWS V14.01,2013-10-15 20:08:00,
2013-10-15 16:13:00,60.9,51.8,30.07,NE,44,0.0,3.0,72,0.00,,,0.01,VWS V14.01,2013-10-15 20:13:00,
2013-10-15 16:18:00,60.9,51.5,30.07,NE,44,0.0,3.0,71,0.00,,,0.01,VWS V14.01,2013-10-15 20:18:00,
2013-10-15 16:23:00,60.9,52.2,30.07,NE,55,0.0,3.0,73,0.00,,,0.01,VWS V14.01,2013-10-15 20:23:00,
2013-10-15 16:28:00,60.9,52.6,30.07,NE,55,0.0,3.0,74,0.00,,,0.01,VWS V14.01,2013-10-15 20:28:00,
2013-10-15 16:30:00,61.8,54.5,30.08,East,91,2.0,5.0,77,0.00,,,0.01,VWS V15.00,2013-10-15 20:30:00,
2013-10-15 16:33:00,60.9,51.5,30.07,NE,55,0.0,0.0,71,0.00,,,0.01,VWS V14.01,2013-10-15 20:33:00,
2013-10-15 16:38:00,61.1,50.5,30.07,NE,55,0.0,1.0,68,0.00,,,0.01,VWS V14.01,2013-10-15 20:38:00,
2013-10-15 16:43:00,61.1,51.2,30.07,NE,55,0.0,1.0,70,0.00,,,0.01,VWS V14.01,2013-10-15 20:43:00,
2013-10-15 16:48:00,61.2,51.3,30.07,NE,55,0.0,1.0,70,0.00,,,0.01,VWS V14.01,2013-10-15 20:48:00,
2013-10-15 16:53:00,61.2,52.1,30.07,NE,55,0.0,1.0,72,0.00,,,0.01,VWS V14.01,2013-10-15 20:53:00,
2013-10-15 16:58:00,61.3,52.2,30.07,NE,55,0.0,1.0,72,0.00,,,0.01,VWS V14.01,2013-10-15 20:58:00,
2013-10-15 17:00:00,60.8,52.8,30.08,East,83,0.0,3.0,75,0.00,,,0.01,VWS V15.00,2013-10-15 21:00:00,
2013-10-15 17:03:00,61.1,52.0,30.07,NE,55,0.0,1.0,72,0.00,,,0.01,VWS V14.01,2013-10-15 21:03:00,
2013-10-15 17:08:00,61.1,52.4,30.07,NE,55,0.0,1.0,73,0.00,,,0.01,VWS V14.01,2013-10-15 21:08:00,
2013-10-15 17:13:00,61.1,52.4,30.07,NE,55,0.0,1.0,73,0.00,,,0.01,VWS V14.01,2013-10-15 21:13:00,
2013-10-15 17:18:00,61.1,52.8,30.07,NE,55,0.0,1.0,74,0.00,,,0.01,VWS V14.01,2013-10-15 21:18:00,
2013-10-15 17:23:00,61.0,52.7,30.07,NE,55,0.0,1.0,74,0.00,,,0.01,VWS V14.01,2013-10-15 21:23:00,
2013-10-15 17:28:00,61.0,52.3,30.08,NE,55,0.0,1.0,73,0.00,,,0.01,VWS V14.01,2013-10-15 21:28:00,
2013-10-15 17:30:00,60.9,52.6,30.07,NE,55,0.0,3.0,74,0.00,,,0.01,VWS V15.00,2013-10-15 21:30:00,
2013-10-15 17:33:00,60.9,52.2,30.08,NE,55,0.0,0.0,73,0.00,,,0.01,VWS V14.01,2013-10-15 21:33:00,
2013-10-15 17:38:00,60.9,51.5,30.08,NE,55,0.0,0.0,71,0.00,,,0.01,VWS V14.01,2013-10-15 21:38:00,
2013-10-15 17:43:00,60.8,51.3,30.08,NE,55,0.0,0.0,71,0.00,,,0.01,VWS V14.01,2013-10-15 21:43:00,
2013-10-15 17:48:00,60.7,51.2,30.08,NE,55,0.0,0.0,71,0.00,,,0.01,VWS V14.01,2013-10-15 21:48:00,
2013-10-15 17:53:00,60.7,50.9,30.08,NE,55,0.0,0.0,70,0.00,,,0.01,VWS V14.01,2013-10-15 21:53:00,
2013-10-15 17:58:00,60.7,50.1,30.08,NE,55,0.0,0.0,68,0.00,,,0.01,VWS V14.01,2013-10-15 21:58:00,
2013-10-15 18:00:00,61.3,52.6,30.07,NE,55,0.0,1.0,73,0.00,,,0.01,VWS V15.00,2013-10-15 22:00:00,
2013-10-15 18:03:00,60.6,50.4,30.08,NE,55,0.0,0.0,69,0.00,,,0.01,VWS V14.01,2013-10-15 22:03:00,
2013-10-15 18:08:00,60.5,50.3,30.07,NE,55,0.0,0.0,69,0.00,,,0.01,VWS V14.01,2013-10-15 22:08:00,
2013-10-15 18:13:00,60.5,49.9,30.07,NE,55,0.0,0.0,68,0.00,,,0.01,VWS V14.01,2013-10-15 22:13:00,
2013-10-15 18:18:00,60.4,50.2,30.08,NE,55,0.0,0.0,69,0.00,,,0.01,VWS V14.01,2013-10-15 22:18:00,
2013-10-15 18:23:00,60.3,50.1,30.08,NE,55,0.0,0.0,69,0.00,,,0.01,VWS V14.01,2013-10-15 22:23:00,
2013-10-15 18:28:00,60.2,49.6,30.08,NE,55,0.0,0.0,68,0.00,,,0.01,VWS V14.01,2013-10-15 22:28:00,
2013-10-15 18:30:00,61.0,52.3,30.08,NE,55,0.0,1.0,73,0.00,,,0.01,VWS V15.00,2013-10-15 22:30:00,
2013-10-15 18:33:00,60.1,49.5,30.08,NE,55,0.0,0.0,68,0.00,,,0.01,VWS V14.01,2013-10-15 22:33:00,
2013-10-15 18:38:00,60.0,48.6,30.08,NE,55,0.0,0.0,66,0.00,,,0.01,VWS V14.01,2013-10-15 22:38:00,
2013-10-15 18:43:00,59.8,48.0,30.08,NE,55,0.0,0.0,65,0.00,,,0.01,VWS V14.01,2013-10-15 22:43:00,
2013-10-15 18:48:00,59.7,46.7,30.08,NE,55,0.0,0.0,62,0.00,,,0.01,VWS V14.01,2013-10-15 22:48:00,
2013-10-15 18:53:00,59.6,45.3,30.08,NE,55,0.0,0.0,59,0.00,,,0.01,VWS V14.01,2013-10-15 22:53:00,
2013-10-15 18:58:00,59.5,44.3,30.08,NE,55,0.0,0.0,57,0.00,,,0.01,VWS V14.01,2013-10-15 22:58:00,
2013-10-15 19:00:00,60.7,50.1,30.08,NE,55,0.0,0.0,68,0.00,,,0.01,VWS V15.00,2013-10-15 23:00:00,
2013-10-15 19:03:00,59.4,44.2,30.08,NE,55,0.0,0.0,57,0.00,,,0.01,VWS V14.01,2013-10-15 23:03:00,
2013-10-15 19:08:00,59.1,42.5,30.08,NE,55,0.0,0.0,54,0.00,,,0.01,VWS V14.01,2013-10-15 23:08:00,
2013-10-15 19:13:00,59.0,42.4,30.09,NE,55,0.0,0.0,54,0.00,,,0.01,VWS V14.01,2013-10-15 23:13:00,
2013-10-15 19:18:00,58.8,40.2,30.08,NE,55,0.0,0.0,50,0.00,,,0.01,VWS V14.01,2013-10-15 23:18:00,
2013-10-15 19:23:00,58.6,40.0,30.08,NE,55,0.0,0.0,50,0.00,,,0.01,VWS V14.01,2013-10-15 23:23:00,
2013-10-15 19:28:00,58.5,38.9,30.08,NE,55,0.0,0.0,48,0.00,,,0.01,VWS V14.01,2013-10-15 23:28:00,
2013-10-15 19:30:00,60.2,49.6,30.08,NE,55,0.0,0.0,68,0.00,,,0.01,VWS V15.00,2013-10-15 23:30:00,
2013-10-15 19:33:00,58.4,37.2,30.08,NE,55,0.0,0.0,45,0.00,,,0.01,VWS V14.01,2013-10-15 23:33:00,
2013-10-15 19:38:00,58.2,35.8,30.09,NE,55,0.0,0.0,43,0.00,,,0.01,VWS V14.01,2013-10-15 23:38:00,
2013-10-15 19:43:00,58.1,33.9,30.09,NE,55,0.0,0.0,40,0.00,,,0.01,VWS V14.01,2013-10-15 23:43:00,
2013-10-15 19:48:00,58.0,33.2,30.09,NE,55,0.0,0.0,39,0.00,,,0.01,VWS V14.01,2013-10-15 23:48:00,
2013-10-15 19:53:00,57.8,32.4,30.09,NE,55,0.0,0.0,38,0.00,,,0.01,VWS V14.01,2013-10-15 23:53:00,
2013-10-15 19:58:00,57.7,31.6,30.09,NE,55,0.0,0.0,37,0.00,,,0.01,VWS V14.01,2013-10-15 23:58:00,
2013-10-15 20:00:00,59.5,44.3,30.08,NE,55,0.0,0.0,57,0.00,,,0.01,VWS V15.00,2013-10-16 00:00:00,
2013-10-15 20:03:00,57.7,30.3,30.09,NE,55,0.0,1.0,35,0.00,,,0.01,VWS V14.01,2013-10-16 00:03:00,
2013-10-15 20:08:00,57.6,30.2,30.09,NE,55,0.0,1.0,35,0.00,,,0.01,VWS V14.01,2013-10-16 00:08:00,
2013-10-15 20:13:00,57.5,29.4,30.09,NE,55,0.0,1.0,34,0.00,,,0.01,VWS V14.01,2013-10-16 00:13:00,
2013-10-15 20:18:00,57.5,28.6,30.09,NE,55,0.0,1.0,33,0.00,,,0.01,VWS V14.01,2013-10-16 00:18:00,
2013-10-15 20:23:00,57.4,28.5,30.09,NE,55,0.0,1.0,33,0.00,,,0.01,VWS V14.01,2013-10-16 00:23:00,
2013-10-15 20:28:00,57.3,27.7,30.09,NE,55,0.0,1.0,32,0.00,,,0.01,VWS V14.01,2013-10-16 00:28:00,
2013-10-15 20:30:00,58.5,38.9,30.08,NE,55,0.0,0.0,48,0.00,,,0.01,VWS V15.00,2013-10-16 00:30:00,
2013-10-15 20:33:00,57.3,27.0,30.10,NE,55,0.0,0.0,31,0.00,,,0.01,VWS V14.01,2013-10-16 00:33:00,
2013-10-15 20:38:00,57.2,26.1,30.10,NE,55,0.0,0.0,30,0.00,,,0.01,VWS V14.01,2013-10-16 00:38:00,
2013-10-15 20:43:00,57.2,26.1,30.10,NE,55,0.0,0.0,30,0.00,,,0.01,VWS V14.01,2013-10-16 00:43:00,
2013-10-15 20:48:00,57.1,25.2,30.10,NE,55,0.0,0.0,29,0.00,,,0.01,VWS V14.01,2013-10-16 00:48:00,
2013-10-15 20:53:00,57.0,24.2,30.10,NE,55,0.0,0.0,28,0.00,,,0.01,VWS V14.01,2013-10-16 00:53:00,
2013-10-15 20:58:00,57.0,24.2,30.10,NE,55,0.0,0.0,28,0.00,,,0.01,VWS V14.01,2013-10-16 00:58:00,
2013-10-15 21:00:00,57.7,31.6,30.09,NE,55,0.0,0.0,37,0.00,,,0.01,VWS V15.00,2013-10-16 01:00:00,
2013-10-15 21:03:00,56.9,23.3,30.10,NE,55,0.0,0.0,27,0.00,,,0.01,VWS V14.01,2013-10-16 01:03:00,
2013-10-15 21:08:00,56.9,23.3,30.09,NE,55,0.0,0.0,27,0.00,,,0.01,VWS V14.01,2013-10-16 01:08:00,
2013-10-15 21:13:00,56.8,23.2,30.09,NE,55,0.0,0.0,27,0.00,,,0.01,VWS V14.01,2013-10-16 01:13:00,
2013-10-15 21:18:00,56.7,23.1,30.09,NE,55,0.0,0.0,27,0.00,,,0.01,VWS V14.01,2013-10-16 01:18:00,
2013-10-15 21:23:00,56.6,23.9,30.09,NE,55,0.0,0.0,28,0.00,,,0.01,VWS V14.01,2013-10-16 01:23:00,
2013-10-15 21:28:00,56.4,23.7,30.09,NE,55,0.0,0.0,28,0.00,,,0.01,VWS V14.01,2013-10-16 01:28:00,
2013-10-15 21:30:00,57.3,27.7,30.09,NE,55,0.0,1.0,32,0.00,,,0.01,VWS V15.00,2013-10-16 01:30:00,
2013-10-15 21:33:00,56.3,23.6,30.09,NE,55,0.0,0.0,28,0.00,,,0.01,VWS V14.01,2013-10-16 01:33:00,
2013-10-15 21:38:00,56.1,22.6,30.10,NE,55,0.0,0.0,27,0.00,,,0.01,VWS V14.01,2013-10-16 01:38:00,
2013-10-15 21:43:00,56.0,23.4,30.10,NE,55,0.0,0.0,28,0.00,,,0.01,VWS V14.01,2013-10-16 01:43:00,
2013-10-15 21:48:00,55.8,23.2,30.10,NE,55,0.0,0.0,28,0.00,,,0.01,VWS V14.01,2013-10-16 01:48:00,
2013-10-15 21:53:00,55.6,23.0,30.10,NE,55,0.0,0.0,28,0.00,,,0.01,VWS V14.01,2013-10-16 01:53:00,
2013-10-15 21:58:00,55.5,22.1,30.10,NE,55,0.0,0.0,27,0.00,,,0.01,VWS V14.01,2013-10-16 01:58:00,
2013-10-15 22:00:00,57.0,24.2,30.10,NE,55,0.0,0.0,28,0.00,,,0.01,VWS V15.00,2013-10-16 02:00:00,
2013-10-15 22:03:00,55.3,21.0,30.10,NE,55,0.0,0.0,26,0.00,,,0.01,VWS V14.01,2013-10-16 02:03:00,
2013-10-15 22:08:00,55.2,19.1,30.10,NE,55,0.0,0.0,24,0.00,,,0.01,VWS V14.01,2013-10-16 02:08:00,
2013-10-15 22:13:00,55.2,17.0,30.11,NE,55,0.0,0.0,22,0.00,,,0.01,VWS V14.01,2013-10-16 02:13:00,
2013-10-15 22:18:00,55.2,17.0,30.11,NE,55,0.0,0.0,22,0.00,,,0.01,VWS V14.01,2013-10-16 02:18:00,
2013-10-15 22:23:00,55.1,17.0,30.11,NE,55,0.0,0.0,22,0.00,,,0.01,VWS V14.01,2013-10-16 02:23:00,
2013-10-15 22:28:00,55.0,16.9,30.11,NE,55,0.0,0.0,22,0.00,,,0.01,VWS V14.01,2013-10-16 02:28:00,
2013-10-15 22:30:00,56.4,23.7,30.09,NE,55,0.0,0.0,28,0.00,,,0.01,VWS V15.00,2013-10-16 02:30:00,
2013-10-15 22:33:00,54.9,15.7,30.11,NE,55,0.0,0.0,21,0.00,,,0.01,VWS V14.01,2013-10-16 02:33:00,
2013-10-15 22:38:00,54.8,15.6,30.11,NE,55,0.0,0.0,21,0.00,,,0.01,VWS V14.01,2013-10-16 02:38:00,
2013-10-15 22:43:00,54.8,15.6,30.11,NE,55,0.0,0.0,21,0.00,,,0.01,VWS V14.01,2013-10-16 02:43:00,
2013-10-15 22:48:00,54.7,14.4,30.11,NE,55,0.0,0.0,20,0.00,,,0.01,VWS V14.01,2013-10-16 02:48:00,
2013-10-15 22:53:00,54.6,14.4,30.12,NE,55,0.0,0.0,20,0.00,,,0.01,VWS V14.01,2013-10-16 02:53:00,
2013-10-15 22:58:00,54.6,14.4,30.12,NE,55,0.0,0.0,20,0.00,,,0.01,VWS V14.01,2013-10-16 02:58:00,
2013-10-15 23:00:00,55.5,22.1,30.10,NE,55,0.0,0.0,27,0.00,,,0.01,VWS V15.00,2013-10-16 03:00:00,
2013-10-15 23:03:00,54.6,13.2,30.12,NE,55,0.0,0.0,19,0.00,,,0.01,VWS V14.01,2013-10-16 03:03:00,
2013-10-15 23:08:00,54.6,13.2,30.12,NE,55,0.0,0.0,19,0.00,,,0.01,VWS V14.01,2013-10-16 03:08:00,
2013-10-15 23:13:00,54.5,13.1,30.12,NE,55,0.0,0.0,19,0.00,,,0.01,VWS V14.01,2013-10-16 03:13:00,
2013-10-15 23:18:00,54.5,13.1,30.12,NE,55,0.0,0.0,19,0.00,,,0.01,VWS V14.01,2013-10-16 03:18:00,
2013-10-15 23:23:00,54.5,13.1,30.12,NE,55,0.0,0.0,19,0.00,,,0.01,VWS V14.01,2013-10-16 03:23:00,
2013-10-15 23:28:00,54.4,13.0,30.11,NE,55,0.0,0.0,19,0.00,,,0.01,VWS V14.01,2013-10-16 03:28:00,
2013-10-15 23:30:00,55.0,16.9,30.11,NE,55,0.0,0.0,22,0.00,,,0.01,VWS V15.00,2013-10-16 03:30:00,
2013-10-15 23:33:00,54.4,13.0,30.11,NE,55,0.0,0.0,19,0.00,,,0.01,VWS V14.01,2013-10-16 03:33:00,
2013-10-15 23:38:00,54.4,13.0,30.11,NE,55,0.0,0.0,19,0.00,,,0.01,VWS V14.01,2013-10-16 03:38:00,
2013-10-15 23:43:00,54.2,14.0,30.11,NE,55,0.0,0.0,20,0.00,,,0.01,VWS V14.01,2013-10-16 03:43:00,
2013-10-15 23:48:00,54.2,14.0,30.11,NE,55,0.0,0.0,20,0.00,,,0.01,VWS V14.01,2013-10-16 03:48:00,
2013-10-15 23:53:00,54.1,12.8,30.11,NE,55,0.0,0.0,19,0.00,,,0.01,VWS V14.01,2013-10-16 03:53:00,
2013-10-15 23:58:00,54.1,12.8,30.11,NE,55,0.0,0.0,19,0.00,,,0.01,VWS V14.01,2013-10-16 03:58:00,